[[{"header":{"parameterUnit":"m.s-1","parameterCategory":1,"la1":30.2991,"la2":30.254,"lo1":-89.0895,"lo2":-89.0444,"dy":0.0017,"dx":0.0017,"nx":28,"ny":28,"refTime":"2025-11-23T09:00:00:Z","depth":0,"parameterNumber":2,"parameterNumberName":"U-component_of_WINDS"},"data":[0,0,0,0,0,0,0,0,0,0,0,0,0,0,0,0,0,0,0,0,0,0,0,0,0,0,0,0,0,0,0,0,0,0,0,0,0,0,0,0,0,0,0,0,0,0,0,0,0,0,0,0,0,0,0,0,0,0,0.4951,0.4952,0,0.4978,0.4979,0.4979,0.499,0.499,0.499,0.499,0.5018,0.5019,0.502,0,0,0,0,0,0,0,0,0,0,0,0,0,0.4912,0.4913,0.4951,0.4952,0.4952,0.4978,0.4979,0.4979,0.499,0.499,0.499,0.499,0.5018,0.5019,0.502,0,0,0,0,0,0,0,0,0,0,0,0,0,0.4933,0.4913,0.4951,0.4961,0.4962,0.4978,0.4979,0.4979,0.499,0.499,0.499,0.499,0.5018,0.5019,0.502,0.503,0,0,0.5024,0.5025,0,0,0,0,0,0,0,0,0.4932,0.4935,0.4959,0.496,0.4961,0.4981,0.4975,0.4996,0.499,0.4979,0.499,0.499,0.5006,0.5008,0.5013,0.5031,0.5032,0.5024,0.5025,0.5025,0.5026,0,0,0,0,0,0,0,0.493,0.4934,0.4962,0.4959,0.4961,0.4964,0.4967,0.4979,0.4993,0.498,0.4981,0.4984,0.5007,0.5012,0.5014,0.5033,0.5024,0.5025,0.5026,0.5026,0.5062,0.5062,0,0,0,0,0,0,0.4927,0.4932,0.4961,0.4963,0.4946,0.4965,0.4968,0.4975,0.4993,0.4995,0.4984,0.4984,0.501,0.5013,0.5015,0.5029,0.5025,0.5027,0.5027,0.5062,0.5062,0.5062,0,0,0,0,0,0,0.4926,0.493,0.496,0.4948,0.4952,0.4966,0.4973,0.4975,0.4981,0.4996,0.4998,0.4987,0.501,0.5014,0.5026,0.503,0.5027,0.5028,0.5061,0.5062,0.5062,0.5055,0,0,0,0,0,0,0.4925,0.4929,0.4932,0.4948,0.4953,0.497,0.4973,0.4976,0.4983,0.4983,0.4999,0.5002,0.501,0.5025,0.5028,0.5032,0.5029,0.5061,0.5062,0.5062,0.5055,0.5055,0.5055,0,0,0,0,0,0.4924,0.4929,0.4932,0.4936,0.4956,0.497,0.4973,0.4982,0.4983,0.4987,0.4997,0.5001,0.5029,0.5026,0.5029,0.5034,0.5061,0.5061,0.5062,0.5055,0.5055,0.5055,0,0,0,0,0,0,0.4913,0.4931,0.4935,0.4945,0.4956,0.4972,0.4977,0.4982,0.4993,0.4993,0.5005,0.5008,0.5021,0.5029,0.5024,0.5045,0.5046,0.5047,0.5039,0.5039,0.5039,0.5037,0.503,0,0,0,0,0,0.4912,0.4921,0.4937,0.4944,0.495,0.4962,0.4969,0.4975,0.4987,0.4992,0.5002,0.5014,0.5026,0.5033,0.5044,0.5057,0.5061,0.5062,0.5062,0.5062,0.5062,0.5071,0.5072,0.5064,0.5064,0.5064,0,0,0.491,0.4921,0.4926,0.4943,0.4952,0.4962,0.4966,0.4976,0.4984,0.4993,0.5006,0.5015,0.5029,0.5042,0.5048,0.5049,0.5066,0.5062,0.5062,0.5063,0.5072,0.5072,0.5073,0.5064,0.5064,0.5064,0,0,0.4911,0.492,0.4928,0.4938,0.4952,0.496,0.4962,0.4978,0.4984,0.4997,0.5005,0.5015,0.5034,0.5044,0.5052,0.506,0.5065,0.5063,0.5063,0.5072,0.5072,0.5073,0.5077,0.5078,0.5064,0.5064,0.5064,0,0.4907,0.4922,0.4932,0.4942,0.4949,0.4959,0.4968,0.4977,0.4994,0.4999,0.5,0.5026,0.5036,0.5052,0.5054,0.506,0.5064,0.5061,0.5071,0.5072,0.5073,0.5076,0.5078,0.5064,0.5064,0.5064,0.5064,0,0.4916,0.4926,0.4931,0.4948,0.4956,0.4965,0.4978,0.4986,0.4992,0.5001,0.5016,0.5029,0.5044,0.5048,0.5054,0.5066,0.5066,0.5069,0.507,0.5073,0.5077,0.5078,0.5063,0.5064,0.5064,0.5064,0,0,0.491,0.4933,0.4935,0.4943,0.496,0.4969,0.498,0.4994,0.5001,0.5013,0.5023,0.504,0.5044,0.5052,0.506,0.5068,0.5074,0.507,0.507,0.5071,0.509,0.5087,0.5089,0.5078,0.5079,0.5079,0.5089,0,0.4914,0.4932,0.4943,0.4958,0.4968,0.4978,0.4988,0.5,0.501,0.5021,0.5031,0.5044,0.5047,0.5052,0.506,0.5072,0.5078,0.5071,0.5089,0.5089,0.5085,0.509,0.5088,0.5096,0.509,0.509,0.509,0,0.492,0.4932,0.4948,0.4965,0.497,0.4978,0.4994,0.5004,0.5019,0.5025,0.5036,0.5044,0.5058,0.5058,0.5077,0.5072,0.508,0.5087,0.5088,0.509,0.509,0.5093,0.5099,0.51,0.5093,0.5092,0.5092,0,0.4915,0.4935,0.4948,0.4954,0.4975,0.4981,0.499,0.5005,0.5013,0.5027,0.5033,0.5048,0.5057,0.5069,0.5082,0.508,0.51,0.5101,0.5107,0.5106,0.511,0.5109,0.5118,0.5115,0.5115,0.5115,0.5115,0,0.4918,0.4927,0.4946,0.4953,0.4965,0.4978,0.4989,0.4999,0.5013,0.5023,0.5034,0.5044,0.506,0.5073,0.5083,0.5098,0.5102,0.5108,0.5111,0.5107,0.5106,0.5112,0.5112,0.5115,0.5115,0.5115,0.5115,0,0.4913,0.4926,0.494,0.4959,0.4964,0.4972,0.4989,0.4997,0.5008,0.5022,0.5026,0.5043,0.5058,0.5072,0.5093,0.51,0.5116,0.5119,0.511,0.5112,0.5117,0.5116,0.5129,0.5132,0.5127,0.5127,0.5127,0,0.4914,0.4922,0.4942,0.4949,0.4958,0.4971,0.498,0.4994,0.5003,0.5022,0.5029,0.5045,0.5059,0.5083,0.5098,0.5115,0.5118,0.5122,0.5121,0.5118,0.5119,0.5119,0.512,0.5122,0.5122,0.5122,0.5122,0,0.4915,0.4921,0.4933,0.4949,0.4959,0.4972,0.4985,0.4991,0.5008,0.5018,0.5034,0.5045,0.5067,0.5084,0.5102,0.5113,0.512,0.5122,0.5124,0.5121,0.5116,0.5119,0.511,0.5121,0.5121,0.5121,0.5121,0.5121,0.4913,0.4921,0.4937,0.4951,0.4962,0.4975,0.4984,0.4997,0.501,0.5028,0.5036,0.5053,0.507,0.5095,0.5106,0.5121,0.5122,0.5125,0.5126,0.5126,0.5126,0.5114,0.5124,0.5124,0.5124,0.5124,0.5124,0,0.4915,0.4926,0.4939,0.4957,0.4969,0.4975,0.499,0.5,0.5014,0.5029,0.5043,0.5062,0.5079,0.5096,0.5114,0.5122,0.5126,0.5127,0.5126,0.5129,0.5123,0.512,0.5123,0.5123,0.5123,0.5123,0.5123,0.5123,0.4917,0.4931,0.4939,0.496,0.4971,0.4987,0.4995,0.5008,0.502,0.5041,0.5055,0.5066,0.5082,0.5102,0.5118,0.5123,0.513,0.5129,0.5135,0.5129,0.5129,0.5129,0.5126,0.513,0.513,0.5139,0.5139,0.5139]},{"header":{"parameterUnit":"m.s-1","parameterCategory":1,"la1":30.2991,"la2":30.254,"lo1":-89.0895,"lo2":-89.0444,"dy":0.0017,"dx":0.0017,"nx":28,"ny":28,"refTime":"2025-11-23T09:00:00:Z","depth":0,"parameterNumber":3,"parameterNumberName":"V-component_of_WINDS"},"data":[0,0,0,0,0,0,0,0,0,0,0,0,0,0,0,0,0,0,0,0,0,0,0,0,0,0,0,0,0,0,0,0,0,0,0,0,0,0,0,0,0,0,0,0,0,0,0,0,0,0,0,0,0,0,0,0,0,0,-3.028,-3.028,0,-3.0281,-3.0281,-3.0281,-3.0256,-3.0255,-3.0254,-3.0254,-3.0253,-3.0253,-3.0254,0,0,0,0,0,0,0,0,0,0,0,0,0,-3.0258,-3.0259,-3.028,-3.028,-3.028,-3.0281,-3.0281,-3.0281,-3.0256,-3.0255,-3.0254,-3.0253,-3.0253,-3.0253,-3.0254,0,0,0,0,0,0,0,0,0,0,0,0,0,-3.0264,-3.0259,-3.028,-3.0268,-3.0267,-3.0281,-3.0281,-3.0281,-3.0256,-3.0255,-3.0254,-3.0253,-3.0252,-3.0253,-3.0254,-3.0279,0,0,-3.0257,-3.0257,0,0,0,0,0,0,0,0,-3.0264,-3.0265,-3.027,-3.0269,-3.0268,-3.0267,-3.0272,-3.028,-3.0256,-3.026,-3.0254,-3.0253,-3.0258,-3.0259,-3.0261,-3.0279,-3.0279,-3.0257,-3.0257,-3.0258,-3.0258,0,0,0,0,0,0,0,-3.0263,-3.0265,-3.028,-3.027,-3.0269,-3.0262,-3.0262,-3.0274,-3.0265,-3.026,-3.0258,-3.0258,-3.0258,-3.026,-3.0261,-3.0279,-3.0257,-3.0258,-3.0258,-3.0259,-3.0319,-3.032,0,0,0,0,0,0,-3.0265,-3.0265,-3.028,-3.028,-3.0263,-3.0264,-3.0263,-3.0268,-3.0264,-3.0263,-3.0259,-3.0257,-3.0259,-3.026,-3.026,-3.029,-3.0258,-3.0259,-3.0259,-3.0318,-3.0319,-3.032,0,0,0,0,0,0,-3.0264,-3.0267,-3.028,-3.0272,-3.0273,-3.0265,-3.0271,-3.0269,-3.0271,-3.0264,-3.0262,-3.0263,-3.0258,-3.0259,-3.0275,-3.029,-3.0259,-3.026,-3.0317,-3.0318,-3.032,-3.0349,0,0,0,0,0,0,-3.0264,-3.0267,-3.0276,-3.0272,-3.0274,-3.0295,-3.0272,-3.0269,-3.0273,-3.027,-3.0268,-3.0266,-3.0258,-3.0274,-3.0276,-3.029,-3.0261,-3.0315,-3.0317,-3.0319,-3.0347,-3.0352,-3.0356,0,0,0,0,0,-3.0263,-3.0284,-3.0276,-3.0278,-3.0285,-3.0296,-3.0297,-3.0287,-3.0274,-3.0284,-3.0279,-3.0266,-3.0288,-3.0276,-3.0278,-3.0293,-3.0314,-3.0317,-3.0319,-3.0345,-3.0351,-3.0356,0,0,0,0,0,0,-3.0288,-3.0283,-3.0275,-3.0295,-3.0296,-3.0292,-3.0303,-3.0293,-3.0297,-3.0295,-3.0282,-3.0282,-3.03,-3.0298,-3.0284,-3.0317,-3.0299,-3.0302,-3.0318,-3.0323,-3.0328,-3.0328,-3.0261,0,0,0,0,0,-3.0296,-3.0305,-3.03,-3.0318,-3.0319,-3.0311,-3.0315,-3.0308,-3.0308,-3.0309,-3.0305,-3.0306,-3.0313,-3.0318,-3.0324,-3.0347,-3.0346,-3.0358,-3.0363,-3.0366,-3.0369,-3.0382,-3.0387,-3.0328,-3.0328,-3.0328,0,0,-3.0312,-3.0311,-3.0317,-3.0323,-3.0323,-3.0333,-3.0312,-3.0323,-3.033,-3.031,-3.0325,-3.0323,-3.0323,-3.0343,-3.0351,-3.0342,-3.0385,-3.0369,-3.0372,-3.0373,-3.0385,-3.039,-3.0395,-3.033,-3.033,-3.033,0,0,-3.0347,-3.0346,-3.0362,-3.0363,-3.0364,-3.0358,-3.0362,-3.036,-3.0358,-3.0373,-3.0358,-3.0367,-3.0379,-3.038,-3.0382,-3.0419,-3.0407,-3.0421,-3.0444,-3.0457,-3.0461,-3.0465,-3.0479,-3.0484,-3.0424,-3.0424,-3.0424,0,-3.0367,-3.0381,-3.0371,-3.0384,-3.0387,-3.037,-3.0386,-3.0387,-3.039,-3.0393,-3.0382,-3.0398,-3.0397,-3.0417,-3.0426,-3.0428,-3.0433,-3.0421,-3.0462,-3.0465,-3.0469,-3.0482,-3.0487,-3.0426,-3.0426,-3.0425,-3.0425,0,-3.0406,-3.0416,-3.0429,-3.0433,-3.0438,-3.0452,-3.0444,-3.045,-3.0442,-3.0438,-3.0454,-3.0452,-3.0458,-3.0462,-3.0455,-3.0482,-3.0476,-3.0464,-3.0445,-3.0477,-3.0488,-3.0493,-3.0428,-3.0428,-3.0427,-3.0427,0,0,-3.0455,-3.0454,-3.0459,-3.0461,-3.0462,-3.0469,-3.0483,-3.049,-3.0495,-3.0498,-3.0509,-3.0521,-3.051,-3.0512,-3.0505,-3.0516,-3.0546,-3.0502,-3.0502,-3.0511,-3.0576,-3.0585,-3.0591,-3.0538,-3.0539,-3.054,-3.0576,0,-3.0489,-3.0513,-3.0505,-3.0529,-3.0538,-3.0524,-3.0536,-3.0537,-3.0534,-3.0542,-3.0538,-3.0547,-3.0532,-3.0533,-3.0543,-3.054,-3.0559,-3.0537,-3.0548,-3.0549,-3.0549,-3.0597,-3.0607,-3.0641,-3.0581,-3.0581,-3.0582,0,-3.0531,-3.0537,-3.0562,-3.0562,-3.0566,-3.0577,-3.0583,-3.0591,-3.0592,-3.0589,-3.0593,-3.0583,-3.0597,-3.0579,-3.0597,-3.0583,-3.0587,-3.0586,-3.0587,-3.0588,-3.0567,-3.0599,-3.0652,-3.0657,-3.0589,-3.0588,-3.0588,0,-3.0565,-3.0579,-3.0596,-3.0598,-3.0599,-3.0607,-3.0607,-3.0608,-3.0613,-3.0618,-3.0621,-3.0627,-3.0631,-3.0636,-3.0629,-3.0616,-3.0649,-3.0629,-3.0647,-3.0647,-3.0654,-3.0654,-3.0708,-3.0657,-3.0657,-3.0656,-3.0656,0,-3.0604,-3.062,-3.0612,-3.0622,-3.064,-3.0631,-3.0649,-3.0648,-3.0649,-3.0659,-3.0646,-3.0656,-3.0645,-3.0654,-3.0648,-3.0665,-3.0667,-3.0665,-3.0663,-3.0666,-3.0666,-3.0668,-3.0666,-3.0658,-3.0658,-3.0657,-3.0657,0,-3.0645,-3.064,-3.0657,-3.0657,-3.0657,-3.067,-3.067,-3.068,-3.0676,-3.0689,-3.0692,-3.0686,-3.0696,-3.0689,-3.0698,-3.0695,-3.0717,-3.0711,-3.0716,-3.0715,-3.0733,-3.0731,-3.0791,-3.0798,-3.0742,-3.0742,-3.0743,0,-3.0669,-3.0682,-3.0683,-3.0689,-3.0691,-3.0701,-3.0706,-3.0698,-3.0704,-3.0708,-3.0717,-3.0726,-3.0733,-3.0749,-3.0746,-3.0753,-3.0748,-3.0769,-3.0749,-3.0752,-3.0749,-3.0749,-3.075,-3.0772,-3.0773,-3.0774,-3.0774,0,-3.0715,-3.0712,-3.072,-3.0729,-3.0735,-3.0741,-3.0746,-3.0751,-3.0743,-3.0751,-3.0761,-3.0766,-3.0777,-3.0786,-3.0792,-3.0792,-3.0782,-3.078,-3.0785,-3.0788,-3.079,-3.079,-3.0727,-3.0779,-3.0778,-3.0778,-3.0778,-3.0778,-3.0748,-3.0759,-3.0762,-3.0772,-3.0775,-3.078,-3.079,-3.0788,-3.0797,-3.0805,-3.08,-3.0812,-3.0814,-3.0822,-3.0824,-3.0833,-3.0825,-3.0831,-3.0833,-3.0835,-3.0837,-3.0789,-3.0834,-3.0834,-3.0834,-3.0834,-3.0834,0,-3.0793,-3.0795,-3.0804,-3.0812,-3.082,-3.0811,-3.0816,-3.0823,-3.0834,-3.0838,-3.0845,-3.0857,-3.0866,-3.0864,-3.0873,-3.0881,-3.0876,-3.0883,-3.0882,-3.0883,-3.0844,-3.084,-3.0887,-3.0887,-3.0887,-3.0887,-3.0887,-3.0887,-3.0817,-3.0836,-3.0834,-3.0853,-3.0854,-3.0867,-3.0871,-3.0876,-3.0878,-3.0893,-3.0901,-3.09,-3.0901,-3.091,-3.0918,-3.0917,-3.0921,-3.0929,-3.0927,-3.0891,-3.0885,-3.088,-3.0876,-3.093,-3.093,-3.0965,-3.0965,-3.0965]}]]